Home   Weather   Mo i Rana   Past weeks
Flag for Norway

Past Weather in Mo i Rana, Norway — Yesterday and Last 2 Weeks

Now
49 °F

Cool.


Feels Like: 44 °F
Forecast: 49 / 40 °F
Wind: 10 mph from South

Location: Nord-Solvaer

Current Time: Sep 15, 2019 at 10:22:16 am

Latest Report: Sep 15, 2019 at 9:00 am


Visibility: N/A

Pressure: 29.12 "Hg

Humidity: 81%

Dew Point: 43 °F

Location of Mo i RanaLocation

Past Weather in Mo i Rana — Graph

°F

Mo i Rana Temperature Yesterday

Maximum temperature yesterday: 52 °F (at 2:00 pm)
Minimum temperature yesterday: 45 °F (at 5:00 am)
Average temperature yesterday: 48 °F

High & Low Weather Summary for the Past Weeks

 TemperatureHumidityPressure
High69 °F (Sep 1, 11:00 am)97% (Sep 12, 12:00 am)30.24 "Hg (Sep 12, 12:00 am)
Low45 °F (Sep 13, 10:00 pm)47% (Sep 9, 3:00 pm)29.12 "Hg (Sep 15, 7:00 am)
Average53 °F78%29.74 "Hg
* Reported Aug 31 9:00 am — Sep 15 9:00 am, Mo i Rana. Weather by CustomWeather, © 2019

Note: Actual official high and low records may vary slightly from our data, if they occured in-between our weather recording intervals... More about our weather records

Advertising

Mo i Rana Weather History for the Previous 24 Hours

Scroll right to see more
 ConditionsComfort  
Time TempWeatherWind HumidityBarometerVisibility
9:00 am
Sun, Sep 15
49 °FCool.10 mph81%29.12 "HgN/A
8:00 am49 °FCool.9 mph80%29.12 "HgN/A
7:00 am49 °FCool.10 mph78%29.12 "HgN/A
6:00 am49 °FCool.10 mph79%29.15 "HgN/A
5:00 am48 °FCool.10 mph77%29.15 "HgN/A
4:00 am48 °FCool.9 mph76%29.18 "HgN/A
3:00 am47 °FCool.13 mph81%29.21 "HgN/A
2:00 am49 °FCool.13 mph72%29.26 "HgN/A
1:00 am49 °FCool.12 mph74%29.32 "HgN/A
12:00 am49 °FCool.12 mph72%29.38 "HgN/A
11:00 pm
Sat, Sep 14
49 °FCool.10 mph73%29.47 "HgN/A
10:00 pm49 °FCool.9 mph68%29.50 "HgN/A
9:00 pm49 °FCool.8 mph70%29.59 "HgN/A
8:00 pm49 °FCool.7 mph74%29.65 "HgN/A
7:00 pm49 °FCool.7 mph70%29.70 "HgN/A
6:00 pm49 °FCool.5 mph72%29.75 "HgN/A
5:00 pm49 °FCool.5 mph73%29.78 "HgN/A
4:00 pm50 °FCool.6 mph79%29.82 "HgN/A
3:00 pm50 °FCool.6 mph76%29.83 "HgN/A
2:00 pm52 °FCool.6 mph73%29.84 "HgN/A
1:00 pm50 °FCool.7 mph79%29.84 "HgN/A
12:00 pm47 °FCool.5 mph85%29.84 "HgN/A
11:00 am49 °FCool.6 mph87%29.83 "HgN/A
Weather by CustomWeather, © 2019

See weather overview